Highgate, VT

8:08 PM EST on November 22, 2019 (GMT -0500)
Franklin County State

Weather History for KFSO - September, 2019

Change the Weather History Date:

Tuesday, September 17, 2019

  Actual Average (WUND) Record (WUND)
Temperature  
Mean Temperature 56 °F -  
Max Temperature 68 °F - - (-1)
Min Temperature 43 °F - - (-1)
Degree Days  
Heating Degree Days 10    
Growing Degree Days 6 (Base 50)    
Moisture  
Dew Point 49 °F    
Average Humidity 82    
Maximum Humidity 96    
Minimum Humidity 52    
Precipitation  
Precipitation 0.00 in - - ()
Sea Level Pressure  
Sea Level Pressure 30.19 in    
Wind  
Wind Speed 1 mph (North)    
Max Wind Speed 7 mph    
Max Gust Speed -    
Visibility 10 miles    
Events      
Averages and records for this station are not official NWS values.
T = Trace of Precipitation, MM = Missing Value Source: NWS Daily Summary

Daily Weather History Graph

Daily Weather History Graph

Search for Another Location

Airport or City:

Astronomy

Sep. 17, 2019 Rise Set
Actual Time 6:33 AM EDT 6:59 PM EDT
Civil Twilight 6:03 AM EDT 7:29 PM EDT
Nautical Twilight 5:29 AM EDT 8:03 PM EDT
Astronomical Twilight 4:53 AM EDT 8:39 PM EDT
Moon 8:53 PM EDT (9/17) 9:41 AM EDT (9/17)
Length of Visible Light 13h 25m
Length of Day
12h 26m
Waning Gibbous, 89% of the Moon is Illuminated
Sep 17
Waning Gibbous
Sep 21
Last Quarter
Sep 28
New
Oct 5
First Quarter
Oct 13
Full

Hourly Weather History & Observations

Time (EDT) Temp. Dew Point Humidity Pressure Visibility Wind Dir Wind Speed Gust Speed Precip Events Conditions
12:16 AM 54.1 °F 51.1 °F 89% 30.10 in 10.0 mi Calm Calm - N/A   Clear
12:35 AM 51.4 °F 49.6 °F 94% 30.10 in 10.0 mi Calm Calm - N/A   Clear
12:56 AM 50.9 °F 49.5 °F 95% 30.11 in 10.0 mi Calm Calm - N/A   Clear
1:15 AM 49.1 °F 47.8 °F 95% 30.11 in 7.0 mi Calm Calm - N/A   Clear
1:36 AM 48.2 °F 47.1 °F 96% 30.12 in 10.0 mi Calm Calm - N/A   Clear
1:56 AM 47.3 °F 45.9 °F 95% 30.12 in 10.0 mi Calm Calm - N/A   Clear
2:16 AM 47.7 °F 46.4 °F 95% 30.12 in 2.5 mi Calm Calm - N/A   Clear
2:35 AM 46.4 °F 45.0 °F 95% 30.13 in 10.0 mi Calm Calm - N/A   Clear
2:56 AM 46.4 °F 45.0 °F 95% 30.14 in 10.0 mi Calm Calm - N/A   Clear
3:15 AM 46.0 °F 44.8 °F 95% 30.14 in 10.0 mi Calm Calm - N/A   Clear
3:35 AM 45.5 °F 44.2 °F 95% 30.14 in 10.0 mi Calm Calm - N/A   Clear
3:55 AM 45.0 °F 43.7 °F 95% 30.14 in 5.0 mi Calm Calm - N/A   Clear
4:15 AM 44.6 °F 43.3 °F 95% 30.14 in 10.0 mi Calm Calm - N/A   Clear
4:35 AM 44.1 °F 42.8 °F 95% 30.14 in 10.0 mi Calm Calm - N/A   Clear
4:56 AM 44.2 °F 43.0 °F 95% 30.14 in 10.0 mi Calm Calm - N/A   Clear
5:36 AM 43.2 °F 42.1 °F 96% 30.15 in 10.0 mi Calm Calm - N/A   Clear
5:56 AM 43.7 °F 42.6 °F 96% 30.15 in 10.0 mi Calm Calm - N/A   Clear
6:16 AM 43.0 °F 41.9 °F 96% 30.16 in 7.0 mi Calm Calm - N/A   Clear
6:36 AM 43.9 °F 42.8 °F 96% 30.16 in 2.5 mi Calm Calm - N/A   Clear
6:55 AM 43.0 °F 41.9 °F 96% 30.17 in 10.0 mi Calm Calm - N/A   Clear
7:16 AM 43.7 °F 42.6 °F 96% 30.18 in 7.0 mi Calm Calm - N/A   Clear
7:35 AM 45.3 °F 44.1 °F 95% 30.19 in 10.0 mi Calm Calm - N/A   Clear
7:56 AM 47.7 °F 46.4 °F 95% 30.19 in 10.0 mi Calm Calm - N/A   Clear
8:16 AM 49.1 °F 47.7 °F 95% 30.20 in 10.0 mi Calm Calm - N/A   Clear
8:36 AM 51.6 °F 50.4 °F 95% 30.20 in 10.0 mi Calm Calm - N/A   Clear
8:56 AM 53.4 °F 52.2 °F 95% 30.21 in 10.0 mi Calm Calm - N/A   Clear
9:15 AM 54.7 °F 52.5 °F 92% 30.21 in 10.0 mi Calm Calm - N/A   Clear
9:35 AM 55.9 °F 50.2 °F 81% 30.22 in 10.0 mi North 4.6 mph - N/A   Clear
9:55 AM 57.9 °F 50.7 °F 77% 30.22 in 10.0 mi Calm Calm - N/A   Clear
10:16 AM 59.0 °F 50.5 °F 73% 30.22 in 10.0 mi WNW 3.5 mph - N/A   Clear
10:35 AM 59.0 °F 50.0 °F 72% 30.22 in 10.0 mi North 4.6 mph - N/A   Clear
10:56 AM 59.9 °F 50.9 °F 72% 30.22 in 10.0 mi Calm Calm - N/A   Clear
11:16 AM 61.7 °F 51.4 °F 69% 30.22 in 10.0 mi NNE 4.6 mph - N/A   Clear
11:35 AM 60.8 °F 51.1 °F 70% 30.23 in 10.0 mi North 3.5 mph - N/A   Scattered Clouds
11:55 AM 61.3 °F 51.4 °F 70% 30.23 in 10.0 mi NNW 4.6 mph - N/A   Mostly Cloudy
12:16 PM 61.5 °F 51.1 °F 69% 30.23 in 10.0 mi North 6.9 mph - N/A   Overcast
12:35 PM 62.2 °F 51.6 °F 68% 30.23 in 10.0 mi Calm Calm - N/A   Overcast
12:55 PM 63.0 °F 51.6 °F 66% 30.22 in 10.0 mi Calm Calm - N/A   Overcast
1:15 PM 65.5 °F 51.8 °F 61% 30.22 in 10.0 mi NNW 4.6 mph - N/A   Mostly Cloudy
1:35 PM 65.7 °F 52.5 °F 62% 30.21 in 10.0 mi North 4.6 mph - N/A   Scattered Clouds
1:55 PM 64.6 °F 50.9 °F 61% 30.21 in 10.0 mi NNW 5.8 mph - N/A   Mostly Cloudy
2:35 PM 68.0 °F 50.9 °F 54% 30.21 in 10.0 mi North 5.8 mph - N/A   Mostly Cloudy
2:56 PM 66.6 °F 50.9 °F 57% 30.21 in 10.0 mi NNW 3.5 mph - N/A   Overcast
3:16 PM 67.1 °F 50.9 °F 56% 30.20 in 10.0 mi NW 4.6 mph - N/A   Mostly Cloudy
3:35 PM 68.0 °F 50.4 °F 53% 30.20 in 10.0 mi Calm Calm - N/A   Scattered Clouds
3:56 PM 67.5 °F 51.3 °F 56% 30.20 in 10.0 mi NNW 3.5 mph - N/A   Scattered Clouds
4:15 PM 68.2 °F 50.7 °F 54% 30.20 in 10.0 mi North 4.6 mph - N/A   Mostly Cloudy
4:35 PM 68.5 °F 50.0 °F 52% 30.20 in 10.0 mi NNW 6.9 mph - N/A   Mostly Cloudy
4:56 PM 64.8 °F 50.7 °F 60% 30.20 in 10.0 mi North 4.6 mph - N/A   Scattered Clouds
5:15 PM 65.3 °F 51.8 °F 62% 30.20 in 10.0 mi North 3.5 mph - N/A   Mostly Cloudy
5:35 PM 64.4 °F 52.3 °F 65% 30.20 in 10.0 mi Calm Calm - N/A   Scattered Clouds
5:56 PM 66.2 °F 50.0 °F 56% 30.20 in 10.0 mi North 5.8 mph - N/A   Scattered Clouds
6:15 PM 63.9 °F 50.0 °F 61% 30.21 in 10.0 mi North 3.5 mph - N/A   Clear
6:36 PM 61.5 °F 50.7 °F 68% 30.21 in 10.0 mi Calm Calm - N/A   Clear
6:55 PM 58.8 °F 50.9 °F 75% 30.21 in 10.0 mi NNE 3.5 mph - N/A   Clear
7:16 PM 58.3 °F 51.1 °F 77% 30.21 in 10.0 mi Calm Calm - N/A   Clear
7:35 PM 56.1 °F 51.6 °F 85% 30.21 in 10.0 mi Calm Calm - N/A   Clear
7:55 PM 53.8 °F 51.1 °F 91% 30.22 in 10.0 mi Calm Calm - N/A   Clear
8:16 PM 52.9 °F 51.3 °F 94% 30.22 in 10.0 mi Calm Calm - N/A   Clear
8:35 PM 52.3 °F 51.1 °F 95% 30.22 in 10.0 mi Calm Calm - N/A   Clear
8:56 PM 51.4 °F 50.2 °F 95% 30.22 in 10.0 mi Calm Calm - N/A   Clear
9:15 PM 50.5 °F 49.3 °F 95% 30.22 in 10.0 mi Calm Calm - N/A   Clear
9:35 PM 50.4 °F 49.1 °F 95% 30.23 in 10.0 mi Calm Calm - N/A   Clear
9:56 PM 49.3 °F 48.2 °F 96% 30.23 in 10.0 mi Calm Calm - N/A   Clear
10:15 PM 48.7 °F 47.5 °F 95% 30.24 in 10.0 mi Calm Calm - N/A   Clear
10:36 PM 48.2 °F 46.9 °F 95% 30.24 in 10.0 mi Calm Calm - N/A   Clear
10:55 PM 48.6 °F 47.3 °F 95% 30.25 in 10.0 mi Calm Calm - N/A   Clear
11:16 PM 47.5 °F 46.4 °F 96% 30.25 in 10.0 mi Calm Calm - N/A   Clear
11:36 PM 48.6 °F 47.3 °F 95% 30.25 in 10.0 mi Calm Calm - N/A   Clear
11:56 PM 48.7 °F 47.5 °F 95% 30.25 in 10.0 mi Calm Calm - N/A   Clear